When you browse on this site, cookies collect data to enhance your experience and personalize the content and advertising you see.
Visit our Privacy Policy to learn more. By continuing to use the site, you agree to this use of cookies and data.
  • In Hungary
  • List of Countries
  • For 7 days
  • Water Temperature
  • Weather Map
  • News
  • Weather Widgets
  • user-avatar
    Login

    Hourly Weather Mаlaren

    Today, 12 December, Thursday

    Time Temperature Precipitation Wind Pressure Humidity
    00:00 +2°C° 0 mm 3 mps 751 mmHg 93%
    01:00 +2°C° 0 mm 3 mps 751 mmHg 93%
    02:00 +2°C° 0 mm 3 mps 751 mmHg 94%
    03:00 +3°C° 0 mm 2 mps 751 mmHg 95%
    04:00 +3°C° 0 mm 2 mps 750 mmHg 96%
    05:00 +3°C° 0.2 mm 2 mps 750 mmHg 96%
    06:00 +3°C° 0.2 mm 2 mps 750 mmHg 96%
    07:00 +4°C° 0.2 mm 2 mps 750 mmHg 96%
    08:00 +3°C° 0.7 mm 3 mps 749 mmHg 96%
    09:00 +3°C° 0.7 mm 3 mps 749 mmHg 96%
    10:00 +3°C° 0.7 mm 4 mps 749 mmHg 96%
    11:00 +1°C° 0.9 mm 4 mps 749 mmHg 96%
    12:00 +1°C° 0.9 mm 4 mps 748 mmHg 96%
    13:00 +1°C° 0.9 mm 5 mps 748 mmHg 96%
    14:00 +1°C° 0.4 mm 5 mps 748 mmHg 96%
    15:00 +1°C° 0.4 mm 5 mps 747 mmHg 96%
    16:00 +1°C° 0.4 mm 4 mps 747 mmHg 96%
    17:00 +1°C° 0.3 mm 4 mps 746 mmHg 96%
    18:00 +1°C° 0.3 mm 4 mps 746 mmHg 96%
    19:00 +1°C° 0.3 mm 4 mps 746 mmHg 96%
    20:00 +1°C° 0.3 mm 4 mps 746 mmHg 96%
    21:00 +1°C° 0.3 mm 4 mps 746 mmHg 95%
    22:00 +1°C° 0.3 mm 4 mps 745 mmHg 95%
    23:00 +2°C° 0.1 mm 3 mps 745 mmHg 95%

    Tomorrow, 13 December, Friday

    Time Temperature Precipitation Wind Pressure Humidity
    00:00 +2°C° 0.1 mm 3 mps 745 mmHg 94%
    01:00 +3°C° 0.1 mm 2 mps 745 mmHg 94%
    02:00 +3°C° 0 mm 2 mps 745 mmHg 92%
    03:00 +3°C° 0 mm 2 mps 745 mmHg 90%
    04:00 +3°C° 0 mm 2 mps 745 mmHg 88%
    05:00 +2°C° 0 mm 2 mps 745 mmHg 89%
    06:00 +2°C° 0 mm 2 mps 745 mmHg 90%
    07:00 +2°C° 0 mm 2 mps 745 mmHg 91%
    08:00 +2°C° 0 mm 2 mps 745 mmHg 92%
    09:00 +2°C° 0 mm 2 mps 746 mmHg 92%
    10:00 +3°C° 0 mm 2 mps 746 mmHg 92%
    11:00 +3°C° 0 mm 2 mps 746 mmHg 91%
    12:00 +2°C° 0 mm 3 mps 746 mmHg 90%
    13:00 +3°C° 0 mm 3 mps 746 mmHg 90%
    14:00 +2°C° 0.1 mm 3 mps 745 mmHg 91%
    15:00 +1°C° 0.1 mm 4 mps 745 mmHg 93%
    16:00 +1°C° 0.1 mm 4 mps 745 mmHg 95%
    17:00 +1°C° 0.2 mm 4 mps 745 mmHg 95%
    18:00 +1°C° 0.2 mm 4 mps 745 mmHg 95%
    19:00 +1°C° 0.2 mm 4 mps 744 mmHg 96%
    20:00 +1°C° 0.5 mm 4 mps 744 mmHg 95%
    21:00 +2°C° 0.5 mm 5 mps 744 mmHg 95%
    22:00 +2°C° 0.5 mm 5 mps 743 mmHg 94%
    23:00 +2°C° 0.3 mm 5 mps 743 mmHg 93%

    Day after tomorrow, 14 December, Saturday

    Time Temperature Precipitation Wind Pressure Humidity
    00:00 +2°C° 0.3 mm 5 mps 743 mmHg 92%
    01:00 +4°C° 0.3 mm 4 mps 743 mmHg 90%
    02:00 +4°C° 0.1 mm 4 mps 742 mmHg 91%
    03:00 +3°C° 0.1 mm 4 mps 742 mmHg 92%
    04:00 +3°C° 0.1 mm 4 mps 742 mmHg 92%
    05:00 +4°C° 0.2 mm 4 mps 741 mmHg 92%
    06:00 +4°C° 0.2 mm 4 mps 741 mmHg 93%
    07:00 +4°C° 0.2 mm 4 mps 741 mmHg 93%
    08:00 +4°C° 0.2 mm 4 mps 741 mmHg 91%
    09:00 +4°C° 0.2 mm 4 mps 741 mmHg 89%
    10:00 +4°C° 0.2 mm 4 mps 741 mmHg 87%
    11:00 +4°C° 0.1 mm 4 mps 740 mmHg 86%
    12:00 +4°C° 0.1 mm 4 mps 740 mmHg 86%
    13:00 +3°C° 0.1 mm 5 mps 739 mmHg 85%
    14:00 +2°C° 0.2 mm 5 mps 739 mmHg 86%
    15:00 +2°C° 0.2 mm 5 mps 739 mmHg 88%
    16:00 +2°C° 0.2 mm 5 mps 738 mmHg 89%
    17:00 +2°C° 0.4 mm 5 mps 738 mmHg 88%
    18:00 +2°C° 0.4 mm 5 mps 738 mmHg 87%
    19:00 +2°C° 0.4 mm 5 mps 738 mmHg 86%
    20:00 +2°C° 0.1 mm 5 mps 738 mmHg 85%
    21:00 +2°C° 0.1 mm 5 mps 738 mmHg 85%
    22:00 +3°C° 0.1 mm 4 mps 738 mmHg 85%
    23:00 +2°C° 0.1 mm 5 mps 738 mmHg 87%

    15 December, Sunday

    Time Temperature Precipitation Wind Pressure Humidity
    00:00 +2°C° 0.1 mm 5 mps 737 mmHg 89%
    01:00 +1°C° 0.1 mm 5 mps 737 mmHg 90%
    02:00 +1°C° 0.7 mm 5 mps 737 mmHg 92%
    03:00 +1°C° 0.7 mm 4 mps 736 mmHg 94%
    04:00 +1°C° 0.7 mm 4 mps 736 mmHg 96%
    05:00 +1°C° 0.2 mm 5 mps 736 mmHg 90%
    06:00 +1°C° 0.2 mm 5 mps 737 mmHg 83%
    07:00 +1°C° 0.2 mm 6 mps 737 mmHg 77%
    08:00 +1°C° 0 mm 6 mps 738 mmHg 76%
    09:00 +1°C° 0 mm 6 mps 739 mmHg 75%
    10:00 +1°C° 0 mm 6 mps 739 mmHg 73%
    11:00 +1°C° 0 mm 6 mps 740 mmHg 72%
    12:00 +1°C° 0 mm 6 mps 741 mmHg 70%
    13:00 +1°C° 0 mm 5 mps 741 mmHg 69%
    14:00 +1°C° 0 mm 5 mps 741 mmHg 72%
    15:00 +1°C° 0 mm 5 mps 741 mmHg 74%
    16:00 0°C° 0 mm 4 mps 741 mmHg 77%
    17:00 0°C° 0 mm 4 mps 741 mmHg 78%
    18:00 +1°C° 0 mm 3 mps 741 mmHg 80%
    19:00 +1°C° 0 mm 3 mps 741 mmHg 81%
    20:00 +1°C° 0 mm 3 mps 742 mmHg 82%
    21:00 +1°C° 0 mm 3 mps 742 mmHg 82%
    22:00 +1°C° 0 mm 3 mps 743 mmHg 82%
    23:00 +1°C° 0 mm 3 mps 743 mmHg 84%

    16 December, Monday

    Time Temperature Precipitation Wind Pressure Humidity
    00:00 -1°C° 0 mm 4 mps 744 mmHg 85%
    01:00 -1°C° 0 mm 4 mps 745 mmHg 86%
    02:00 0°C° 0 mm 5 mps 745 mmHg 85%
    03:00 0°C° 0 mm 5 mps 745 mmHg 83%
    04:00 +1°C° 0 mm 6 mps 746 mmHg 82%
    05:00 +1°C° 0 mm 6 mps 746 mmHg 81%
    06:00 +1°C° 0 mm 6 mps 747 mmHg 80%
    07:00 +1°C° 0 mm 6 mps 747 mmHg 79%
    08:00 +1°C° 0 mm 6 mps 747 mmHg 80%
    09:00 +1°C° 0 mm 6 mps 748 mmHg 80%
    10:00 +1°C° 0 mm 6 mps 748 mmHg 81%
    11:00 +1°C° 0 mm 6 mps 748 mmHg 84%
    12:00 +1°C° 0 mm 6 mps 748 mmHg 87%
    13:00 +1°C° 0 mm 6 mps 748 mmHg 90%
    14:00 +1°C° 0 mm 5 mps 748 mmHg 88%
    15:00 +1°C° 0 mm 5 mps 748 mmHg 85%
    16:00 +2°C° 0 mm 5 mps 748 mmHg 83%
    17:00 +2°C° 0.1 mm 5 mps 748 mmHg 84%
    18:00 +2°C° 0.1 mm 5 mps 748 mmHg 86%
    19:00 +1°C° 0.1 mm 5 mps 748 mmHg 87%
    20:00 +1°C° 0.2 mm 5 mps 749 mmHg 87%
    21:00 +1°C° 0.2 mm 4 mps 749 mmHg 87%
    22:00 +1°C° 0.2 mm 4 mps 749 mmHg 87%
    23:00 +1°C° 0 mm 4 mps 750 mmHg 87%

    17 December, Tuesday

    Time Temperature Precipitation Wind Pressure Humidity
    00:00 +1°C° 0 mm 4 mps 750 mmHg 87%
    01:00 +1°C° 0 mm 4 mps 750 mmHg 88%
    02:00 +1°C° 0 mm 4 mps 751 mmHg 88%
    03:00 +1°C° 0 mm 4 mps 751 mmHg 88%
    04:00 +1°C° 0 mm 4 mps 751 mmHg 88%
    05:00 +1°C° 0 mm 4 mps 752 mmHg 88%
    06:00 +1°C° 0 mm 4 mps 752 mmHg 88%
    07:00 +1°C° 0 mm 4 mps 752 mmHg 89%
    08:00 +3°C° 0 mm 4 mps 752 mmHg 86%
    09:00 +2°C° 0 mm 5 mps 753 mmHg 84%
    10:00 +2°C° 0 mm 5 mps 753 mmHg 82%
    11:00 +2°C° 0 mm 5 mps 754 mmHg 81%
    12:00 +2°C° 0 mm 5 mps 754 mmHg 80%
    13:00 +2°C° 0 mm 5 mps 754 mmHg 79%
    14:00 +2°C° 0 mm 5 mps 754 mmHg 83%
    15:00 +1°C° 0 mm 4 mps 755 mmHg 86%
    16:00 +1°C° 0 mm 3 mps 755 mmHg 90%
    17:00 +1°C° 0 mm 3 mps 755 mmHg 91%
    18:00 +1°C° 0 mm 3 mps 755 mmHg 92%
    19:00 +1°C° 0 mm 3 mps 755 mmHg 93%
    20:00 +1°C° 0 mm 3 mps 755 mmHg 93%
    21:00 +1°C° 0 mm 2 mps 756 mmHg 93%
    22:00 +1°C° 0 mm 2 mps 756 mmHg 93%
    23:00 +1°C° 0 mm 2 mps 756 mmHg 93%
    Show more